Location: Del Oro Observatory
(38.3044°N, 104.8119°W)
Time: 10:43:19
(UTC-06:00)

Daily predictions for brighter satellites

Satellite Brightness Start Highest point End
(mag) Time Altitude Azimuth Time Altitude Azimuth Time Altitude Azimuth
Meteor 2-10 Rocket 3.9 20:36:03 10° N 20:41:56 87° E 20:47:42 10° S
Meteor 1-29 4.3 20:45:39 10° NE 20:48:26 22° E 20:51:12 10° SSE
Resurs 1-3 3.9 20:44:06 10° S 20:48:28 72° WSW 20:52:52 10° NNW
Cosmos 1470 Rocket 4.1 20:46:10 10° SSW 20:50:38 67° W 20:55:06 10° N
Cosmos 1703 Rocket 4.4 20:48:11 10° NNE 20:52:10 32° ENE 20:56:06 10° SE
Cosmos 2150 Rocket 4.2 20:48:22 10° SSW 20:53:44 81° WNW 20:59:04 10° NNE
Cosmos 2298 Rocket 4.4 20:49:11 10° SSW 20:54:27 70° WNW 20:59:45 10° NNE
Cosmos 1408 4.3 20:52:42 10° SE 20:55:04 16° E 20:57:26 10° NE
SJ-11-01 4.4 20:54:23 10° SSE 20:59:02 62° ENE 21:03:41 10° N
Meteor 2-3 Rocket 3.7 20:55:03 10° S 21:00:44 73° E 21:06:24 10° NNE
Cosmos 1782 4.3 20:59:13 10° NNE 21:02:19 21° ENE 21:04:51 12° ESE
Cosmos 2082 Rocket 3.9 20:58:18 10° NW 21:03:12 31° WSW 21:08:08 10° SSW
Meteor 1-26 Rocket 4.3 20:58:57 10° N 21:04:38 86° E 21:10:24 10° S
Cosmos 1825 3.6 21:03:11 12° SE 21:05:42 21° E 21:08:34 10° NE
ERS-1 Rocket 3.8 21:03:32 11° SE 21:07:47 34° ENE 21:12:17 10° N
Cosmos 1869 Rocket 3.9 21:05:20 10° SSE 21:09:25 44° E 21:13:34 10° NNE
Helios 1B rocket 2.4 21:10:22 10° NNE 21:14:28 69° ESE 21:18:33 10° S
Cosmos 2084 3.7 21:11:21 10° NNW 21:15:03 47° NE 21:17:51 17° ESE
USA 186 4.0 21:19:01 10° SW 21:21:01 19° W 21:23:08 10° NW
Cosmos 1892 3.7 21:19:07 10° SSW 21:22:51 49° W 21:26:36 10° N
Lacrosse 4 Rocket 3.2 21:19:52 10° N 21:23:17 21° NE 21:25:48 14° E
ISS -2.6 21:20:43 10° WSW 21:23:51 44° NW 21:26:59 10° NE
Cosmos 2221 Rocket 3.7 21:22:45 10° N 21:27:07 55° E 21:30:22 17° SSE
DELTA 2 R/B(2) 3.3 21:26:09 10° W 21:27:56 58° N 21:28:27 33° ENE
USA 215 3.9 21:22:28 13° ESE 21:28:08 47° NE 21:34:22 10° NW
Cosmos 1943 Rocket 2.2 21:28:00 10° S 21:33:29 57° ESE 21:38:56 10° NNE
Tiangong 2 1.4 21:31:19 10° WNW 21:34:28 55° SSW 21:35:46 30° SE
Terra 4.0 21:33:15 10° E 21:34:50 12° ENE 21:36:25 10° NE
Envisat 4.4 21:35:48 10° SSW 21:40:26 36° W 21:45:06 10° NNW
Cosmos 2344 3.7 21:33:36 10° S 21:40:58 52° ESE 21:48:48 10° NE
Cosmos 1340 3.4 21:38:55 10° N 21:42:28 37° ENE 21:43:36 29° ESE
Cosmos 468 4.5 21:38:02 10° NNW 21:43:19 75° ENE 21:46:37 23° SSE
Cosmos 2263 4.2 21:37:35 10° SSW 21:43:22 89° ESE 21:49:08 10° NNE
CZ-4B DEB 3.1 21:41:44 20° S 21:43:30 53° W 21:46:23 10° NNW
Cosmos 1634 Rocket 4.2 21:38:25 10° N 21:44:43 74° W 21:51:00 10° S
Cosmos 372 Rocket 3.9 21:39:50 10° S 21:44:54 67° ESE 21:50:00 10° NNE
NOAA 11 4.2 21:40:47 18° SSE 21:44:56 78° ENE 21:50:26 10° N
Helios 1A 3.9 21:42:27 10° S 21:46:26 45° W 21:50:29 10° NNW
SPOT 5 3.5 21:47:25 25° SE 21:50:15 49° ENE 21:55:22 10° N
CENTAUR R/B 2.5 21:45:44 10° SSW 21:51:40 87° WNW 21:58:27 10° NNE
Cosmos 1269 Rocket 4.2 21:47:36 10° N 21:52:50 58° ENE 21:55:22 29° SE
COSMOS 2455 3.8 21:47:21 10° SW 21:53:09 49° WNW 21:58:59 10° NNE
SAR-Lupe-4 4.1 21:51:25 21° S 21:53:37 55° W 21:57:08 10° NNW
Nadezhda 4 Rocket 4.4 21:51:21 24° SE 21:54:37 43° E 22:00:23 10° NNE
Cosmos 2369 Rocket 3.1 21:49:56 10° SW 21:55:25 51° WNW 22:00:58 10° NNE
Cosmos 1125 Rocket 3.6 21:50:32 10° SSW 21:55:46 80° WNW 22:01:02 10° NNE
Cosmos 1606 2.6 21:53:29 10° N 21:57:16 88° W 21:58:52 33° S
Shenzhou-11 Module 3.4 21:54:46 10° W 21:57:23 25° SSW 21:57:31 25° SSW
Lacrosse 5 rocket 3.0 21:56:21 10° WSW 21:59:35 31° NW 22:02:53 10° NNE
Milstar 3 3.8 21:48:51 10° WSW 21:59:36 40° S 22:03:20 26° SE
YAOGAN 6 4.5 21:58:24 10° SSW 22:01:37 28° W 22:04:49 10° NW
USA 245 4.5 21:58:24 26° SSE 22:02:04 73° ENE 22:08:25 10° N
TRAILBLAZER 4.4 22:09:16 11° SSW 22:13:35 75° ESE 22:18:08 10° NE
Okean 1-7 4.3 22:12:42 10° NNW 22:16:48 39° W 22:19:40 17° SSW
GPS 2-04 Rocket1 3.1 22:13:27 10° W 22:16:29 41° SW 22:16:29 41° SW
Cosmos 2279 Rocket 4.2 22:12:13 10° NNW 22:18:25 68° W 22:22:39 21° S
ATLAS 5 CENTAUR R/B 2.4 22:13:53 10° NNW 22:19:58 81° ENE 22:22:41 38° SE
MetOp-B 4.5 22:17:02 25° S 22:20:06 62° WSW 22:25:25 10° NNW
Meteor 1-27 Rocket 3.7 22:17:37 10° N 22:23:23 89° ENE 22:25:44 37° S
H-2A R/B 2.1 22:22:48 41° SSE 22:24:45 80° ENE 22:30:07 10° N
Cosmos 158 Rocket 4.4 22:26:08 10° NNW 22:30:51 52° WSW 22:32:33 35° SSW
ARGOS 3.5 22:29:08 30° SSW 22:31:41 59° W 22:36:59 10° NNW
Cosmos 1656 Rocket 3.5 22:29:16 31° SSW 22:31:57 79° ESE 22:37:29 10° NNE
Cosmos 1733 Rocket 3.4 22:38:50 42° SW 22:40:03 61° W 22:44:21 10° N
Sich 1 Rocket 3.8 22:49:49 56° ENE 22:49:49 56° ENE 22:53:38 10° NNE
Intercosmos 25 Rocket 4.1 22:43:33 10° N 22:50:30 74° W 22:51:30 56° SSW
Landsat 7 3.8 22:56:22 68° SW 22:56:46 74° WSW 23:01:33 10° NNW
Cosmos 1655 Rocket 4.4 22:58:12 44° E 22:58:27 44° E 23:04:18 10° NNE
ISS -0.4 22:59:50 10° NW 23:00:59 11° NNW 23:02:08 10° N
Lacrosse 4 Rocket 2.5 22:57:59 10° NW 23:02:08 39° WSW 23:02:08 39° WSW
Meteor 1-14 Rocket 4.2 23:04:52 67° SSE 23:05:34 77° E 23:11:24 10° NNE
Cosmos 2227 Rocket 3.7 23:01:12 10° N 23:05:35 22° NE 23:06:32 22° ENE
Cosmos 1975 Rocket 4.1 23:01:52 10° N 23:05:13 38° NE 23:05:13 38° NE
Meteor 2-20 Rocket 4.4 23:06:18 53° SSW 23:07:52 82° W 23:14:02 10° N
Cosmos 1812 4.1 23:06:04 10° N 23:08:29 34° NNE 23:08:29 34° NNE
ATLAS CENTAUR R/B 2.9 23:12:21 28° NNE 23:12:21 28° NNE 23:14:14 10° NNE
USA 215 3.6 23:09:49 45° SSW 23:11:03 51° SW 23:17:25 10° NW
Cosmos 2219 3.1 23:06:09 10° NNW 23:11:55 71° ENE 23:12:18 68° E
Terra 1.8 23:12:02 74° W 23:12:02 74° W 23:16:41 10° NNW
CARTOSAT-1 3.9 23:13:27 60° WNW 23:13:27 60° WNW 23:17:16 10° NNW
Cosmos 2026 Rocket 3.8 23:12:37 68° SSE 23:13:22 78° E 23:19:37 10° N
SL-19 R/B 4.4 23:10:11 10° NNE 23:16:18 88° ESE 23:17:23 63° S
Cosmos 1378 Rocket 4.0 23:15:19 10° NNW 23:19:06 59° NW 23:19:06 59° NW
Cosmos 2251 Rocket 3.5 23:16:18 10° NNW 23:21:25 75° W 23:21:25 75° W
H-2A R/B 3.0 23:31:06 43° NNW 23:31:06 43° NNW 23:34:00 10° NNW
Cosmos 1417 Rocket 4.4 23:24:16 10° N 23:30:33 72° E 23:30:50 71° ESE
Cosmos 405 Rocket 4.5 23:27:12 10° N 23:29:06 29° N 23:29:06 29° N
Cosmos 1428 Rocket 4.4 23:30:58 75° ESE 23:31:13 76° E 23:37:32 10° N
Meteor 2-11 Rocket 4.4 23:26:22 10° N 23:32:29 69° E 23:32:33 69° E
GEOS 3 Rocket 3.8 23:35:54 61° W 23:35:54 61° W 23:40:36 10° NW
S3M 4.0 23:31:38 10° N 23:37:37 62° ENE 23:37:37 62° ENE
Meteor 1-18 Rocket 4.2 23:35:32 10° NNW 23:41:12 80° W 23:41:12 80° W
SME Rocket 4.3 23:41:40 61° SSW 23:42:41 70° WSW 23:51:44 10° NNW
Spot 4 4.5 23:48:22 54° NW 23:48:22 54° NW 23:52:16 10° NNW
